Weather Roundup
Issued by NWS Springfield, MO

Home | Current Version | Previous Version | Text Only | Print | Product List | Glossary On
Versions: 1 2 3 4 5 6 7 8 9 10 11 12 13 14 15 16 17 18 19 20 21 22 23 24 25 26 27 28 29 30 31 32 33 34 35 36 37 38 39 40 41 42 43 44 45 46 47 48 49 50
000
NZUS99 KSGF 290107
HRRSGF

HOURLY WEATHER
NATIONAL WEATHER SERVICE SPRINGFIELD MO
800 PM CDT FRI APR 28 2017

......SGF CWA......

CITY           SKY/WX    TMP DP  RH WIND       PRES   REMARKS
SPRINGFIELD    CLOUDY    64  62  93 CALM      29.77R
JOPLIN         CLOUDY    66  62  87 NE5       29.77R
WEST PLAINS    CLOUDY    65  63  93 CALM      29.80R FOG
ROLLA          CLOUDY    60  60 100 E3        29.79S
OSAGE BEACH    FOG       61  61 100 NW3       29.80R VSB 1
BRANSON        CLOUDY    63  63 100 CALM      29.77S FOG

......SURROUNDING SGF CWA......

CITY           SKY/WX    TMP DP  RH WIND       PRES   REMARKS
CHANUTE        PTCLDY    67  55  65 E6        29.77R
PARSONS        CLOUDY    65  59  81 CALM      29.77R
COFFEYVILLE    PTCLDY    66  60  81 MISG      29.75R
EMPORIA        CLOUDY    54  53  97 N13G22    29.81R
GROVE OK       CLOUDY    68  63  83 CALM      29.75R
ROGERS AR      LGT RAIN  65  63  93 E3        29.77
SILOAM SPRINGS CLOUDY    66  61  82 E3        29.74R
HARRISON AR    CLOUDY    66  64  93 E3        29.77R
NEAR YELLVILLE CLOUDY    66  61  82 CALM      29.74R

......KANSAS AND MISSOURI......

CITY           SKY/WX    TMP DP  RH WIND       PRES   REMARKS
KANSAS CTY INT FOG       47  47 100 N13       29.84R VSB 1
DOWNTOWN KC    CLOUDY    53  50  89 N10       29.84R
COLUMBIA       CLOUDY    59  58  96 E3        29.81R
SEDALIA        CLOUDY    60  60 100 SE6       29.81R
ST JOSEPH      CLOUDY    45  44  97 N13       29.88R
ST LOUIS       CLOUDY    60  56  86 SE6       29.84R
SPIRIT OF STL  CLOUDY    58  57  97 CALM      29.82R
KIRKSVILLE     CLOUDY    46  31  55 N13       29.85R HAZE
WICHITA        CLOUDY    67  48  50 N12       29.74R
TOPEKA         CLOUDY    49  48  97 N13       29.86R
OLATHE         CLOUDY    58  57  97 N13       29.81R

......TENNESSEE......

CITY           SKY/WX    TMP DP  RH WIND       PRES   REMARKS
MEMPHIS        MOCLDY    81  72  74 S12       29.79R
NASHVILLE      PTCLDY    78  67  68 S7        29.90R

......ARKANSAS.......

CITY           SKY/WX    TMP DP  RH WIND       PRES   REMARKS
FAYETTEVILLE   CLOUDY    66  65  96 CALM      29.75R FOG
FT SMITH       CLOUDY    72  65  78 NE8       29.69R
LITTLE ROCK    CLOUDY    79  73  82 SE7       29.72R

......OKLAHOMA.......

CITY           SKY/WX    TMP DP  RH WIND       PRES   REMARKS
TULSA          CLOUDY    72  64  76 E7        29.68R
PONCA CITY     MOCLDY    68  55  63 E10       29.71R
MCALESTER      CLOUDY    77  69  76 E3        29.65R
OKLAHOMA CITY  CLOUDY    72  62  71 E9        29.65R

......IOWA............

CITY           SKY/WX    TMP DP  RH WIND       PRES   REMARKS
DES MOINES     CLOUDY    45  39  79 NE12      29.93R
QUAD CITIES    CLOUDY    50  47  89 NE7       29.88R

......ILLINOIS........

CITY           SKY/WX    TMP DP  RH WIND       PRES   REMARKS
QUINCY         CLOUDY    56  55  97 CALM      29.84R FOG
CHICAGO        CLOUDY    52  42  69 NE7       29.91R




USA.gov is the U.S. government's official web portal to all federal, state and local government web resources and services.